Hourly Data Report for November 23, 2016

PITT MEADOWS CS
BRITISH COLUMBIA

49°12'29.964" N
122°41'24.076" W
5.00 m
1106178
71775
WMM

Download Data

Hourly Data (November 2016)
Hourly Data Report for November 23, 2016
TIME
LST
Temp Definition
°C
Dew Point Definition
°C
Rel Hum Definition
%
Precip. Amount Definition
mm

Wind Dir Definition
10's deg

Wind Spd Definition
km/h
Visibility Definition
km
Stn Press Definition
kPa
Hmdx Definition


Wind Chill Definition


Weather Definition


00:00 7.0 5.6 90 1.3 13 14   100.87     LegendNANA
01:00 6.5 5.2 91 0.5 10 6   100.93     LegendNANA
02:00 6.4 5.2 92 0.3 5 7   100.96     LegendNANA
03:00 6.1 5.2 94 0.0 4 5   101.01     LegendNANA
04:00 6.0 5.1 94 0.4 4 5   101.03     LegendNANA
05:00 6.0 5.3 95 1.7 5 6   101.07     LegendNANA
06:00 6.1 5.5 96 1.5 36 3   101.11     LegendNANA
07:00 6.3 5.7 96 0.1 9 5   101.15     LegendNANA
08:00 6.4 5.7 95 0.0 7 4   101.22     LegendNANA
09:00 7.1 6.0 93 0.1 5 7   101.27     LegendNANA
10:00 7.9 5.7 86 0.0 11 6   101.32     LegendNANA
11:00 8.5 5.8 83 0.0 11 6   101.36     LegendNANA
12:00 9.4 5.5 77 0.0 16 8   101.35     LegendNANA
13:00 9.1 5.5 78 0.0 16 11   101.38     LegendNANA
14:00 9.2 5.7 79 0.1 16 11   101.38     LegendNANA
15:00 9.1 5.4 77 0.0 16 10   101.44     LegendNANA
16:00 8.8 4.9 77 0.1 16 13   101.46     LegendNANA
17:00 8.5 4.8 78 0.1 16 12   101.48     LegendNANA
18:00 8.5 4.7 77 0.1 13 13   101.47     LegendNANA
19:00 8.6 4.8 77 0.0 15 13   101.46     LegendNANA
20:00 8.8 4.7 75 0.0 13 13   101.44     LegendNANA
21:00 9.1 4.4 72 0.0 11 16   101.40     LegendNANA
22:00 8.7 4.2 73 0.0 12 16   101.33     LegendNANA
23:00 8.8 4.2 73 0.0 12 16   101.24     LegendNANA

Notes on Data Quality.

Legend

  • E = Estimated
  • M = Missing
  • NA = Not Available*
  • [empty] = Indicates an unobserved value
Date modified: